Content
SEND FEEDBACK

Daily
Averages
Monthly
Summary
United States of America

YIGO, GUAM


Home > North America > United States > Guam
Elevation: 162 meters     Latitude: 13 32N     Longitude: 144 53E

WEATHER
 
SELECT A DAY
Number of Records: 214,775;   Date Range: 1/1/95 - 11/21/14
 
SHARE

PRINT THIS DATA

[ ← Previous Day ]
WEATHER ALMANAC - 12 FEBRUARY, 2013
[ Next Day → ]
[ °F ]   °C
Weather ElementAverageHighLow
Temperature25.2 °C27.2 °C (1:54 pm)23.9 °C (6:54 am)
Dewpoint23.3 °C24.4 °C (9:54 am)21.1 °C (8:54 pm)
Humidity89.5 %100 % (7:15 am)79 % (1:54 pm)
Barometer1012.5 hPa1014.2 hPa (8:54 am)1010.8 hPa (3:54 pm)
Wind Speed25.3 km/h35.2 km/h (9:54 pm)
Wind Gust50.1 km/h (6:54 am)
Weather ElementAverage
Visibility14.8 km
Wind DirectionENE (75.9 °)

Weather ElementTotal
Precipitation3.3 mm
Cooling Degree Days7.2 (Base 18.3)
Growing Degree Days15.6 (Base 10)
Averaged from 34 records on 12 February, 2013
WEATHER CONDITIONS BREAKOUT
WIND DIRECTION BREAKOUT
WEATHER BY HOUR - 12 FEBRUARY, 2013
[ °F ]   °C
Local TimeTemperatureDewpointHumidityBarometerVisibilityWind DirectionWind SpeedGust SpeedPrecipitationEventsConditions
1:54 AM24.4 °C23.3 °C94 %1012.9 hPa14.5 kmENE (60°)18.5 km/h0 mmRainLight Rain
2:54 AM24.4 °C22.8 °C91 %1012.5 hPa16.1 kmENE (60°)18.5 km/h0 mmMostly Cloudy
3:54 AM24.4 °C23.3 °C94 %1012.2 hPa16.1 kmNE (50°)18.5 km/hScattered Clouds
4:54 AM24.4 °C23.3 °C94 %1012.2 hPa16.1 kmNE (50°)22.2 km/hScattered Clouds
5:54 AM24.4 °C23.3 °C94 %1012.2 hPa16.1 kmNE (50°)22.2 km/h33.3 km/h0.25 mmMostly Cloudy
6:14 AM24 °C23 °C94 %1013.2 hPa16.1 kmNE (40°)22.2 km/hMostly Cloudy
6:54 AM23.9 °C23.3 °C96 %1012.9 hPa8 kmNE (40°)31.5 km/h50.1 km/h0 mmRainLight Rain
7:15 AM24 °C24 °C100 %1013.5 hPa16.1 kmNE (50°)27.8 km/h38.9 km/h0 mmMostly Cloudy
7:39 AM24 °C23 °C94 %1013.9 hPa16.1 kmENE (70°)24.1 km/h0 mmMostly Cloudy
7:54 AM24.4 °C23.9 °C97 %1013.5 hPa16.1 kmEast (80°)20.4 km/h0 mmScattered Clouds
8:54 AM23.9 °C22.8 °C94 %1014.2 hPa12.9 kmEast (80°)20.4 km/h38.9 km/h0 mmRainLight Rain
9:54 AM26.1 °C24.4 °C90 %1014.2 hPa16.1 kmEast (80°)25.9 km/h35.2 km/hMostly Cloudy
10:54 AM26.7 °C23.9 °C85 %1013.9 hPa14.5 kmEast (90°)29.6 km/h44.4 km/hMostly Cloudy
11:54 AM26.1 °C23.3 °C84 %1013.5 hPa11.3 kmEast (100°)31.5 km/h44.4 km/h0 mmRainLight Rain
12:01 PM24 °C24 °C100 %1013.9 hPa4.8 kmEast (100°)25.9 km/h44.4 km/h0.25 mmRainRain
12:41 PM26 °C24 °C89 %1013.2 hPa16.1 kmEast (90°)24.1 km/h38.9 km/h0.25 mmMostly Cloudy
12:54 PM26.1 °C24.4 °C90 %1012.5 hPa16.1 kmEast (90°)29.6 km/h38.9 km/h0.25 mmMostly Cloudy
1:12 PM27 °C24 °C84 %1012.9 hPa16.1 kmEast (90°)22.2 km/h42.6 km/hScattered Clouds
1:54 PM27.2 °C23.3 °C79 %1011.9 hPa16.1 kmEast (90°)31.5 km/h40.7 km/hScattered Clouds
2:45 PM27 °C23 °C79 %1011.9 hPa16.1 kmEast (90°)27.8 km/h38.9 km/hMostly Cloudy
2:54 PM27.2 °C23.3 °C79 %1011.2 hPa16.1 kmEast (90°)31.5 km/h40.7 km/hMostly Cloudy
3:54 PM26.1 °C24.4 °C90 %1010.8 hPa16.1 kmEast (90°)20.4 km/h40.7 km/hScattered Clouds
4:11 PM25 °C24 °C94 %1011.5 hPa6.4 kmEast (80°)22.2 km/h37 km/h0.76 mmRainLight Rain
4:43 PM26 °C24 °C89 %1011.5 hPa14.5 kmEast (80°)20.4 km/h0.76 mmRainLight Rain
4:54 PM25.6 °C24.4 °C93 %1010.8 hPa16.1 kmEast (80°)27.8 km/h40.7 km/h0.76 mmScattered Clouds
5:54 PM25 °C23.3 °C90 %1011.2 hPa16.1 kmENE (70°)22.2 km/h38.9 km/h0 mmMostly Cloudy
6:54 PM25 °C23.3 °C90 %1011.9 hPa16.1 kmEast (80°)25.9 km/h38.9 km/hScattered Clouds
7:14 PM26 °C24 °C89 %1012.5 hPa16.1 kmENE (70°)22.2 km/hMostly Cloudy
7:42 PM25 °C23 °C89 %1013.2 hPa16.1 kmEast (80°)27.8 km/h40.7 km/hScattered Clouds
7:54 PM25 °C22.8 °C88 %1012.5 hPa16.1 kmEast (80°)27.8 km/h44.4 km/hScattered Clouds
8:54 PM25 °C21.1 °C79 %1013.2 hPa16.1 kmEast (90°)31.5 km/h48.1 km/hPartly Cloudy
9:54 PM25 °C22.2 °C84 %1013.2 hPa16.1 kmEast (80°)35.2 km/h44.4 km/hScattered Clouds
10:54 PM25 °C22.2 °C84 %1013.2 hPa16.1 kmEast (80°)22.2 km/h44.4 km/hScattered Clouds
11:54 PM25 °C22.2 °C84 %1012.9 hPa16.1 kmEast (80°)24.1 km/h40.7 km/hPartly Cloudy
Hourly data recorded from PGUM, located 0 kilometers away from Yigo, Guam







STORIES FROM OUR PARTNERS